KG6SIB Weather Reports


Display with metric or nautical units.
time (UTC)temp
F
wind
direction
speed
MPH
gust
MPH
rain 1hr
in
rain 24hr
in
rain mn
in
humidity
%
barometer
mb
20210926071949 57 24 0.0 6.0 0.00 0.00 0.00 87 1017.5
20210926071430 57 24 4.0 7.0 0.00 0.00 0.00 88 1017.4
20210926070930 57 40 4.0 7.0 0.00 0.00 0.00 88 1017.4
20210926070500 57 41 2.0 7.0 0.00 0.00 0.00 87 1017.5
20210926070000 57 37 4.0 5.0 0.00 0.00 0.00 87 1017.5
20210926065459 57 40 2.0 6.0 0.00 0.00 0.00 87 1017.6
20210926065000 57 40 5.0 6.0 0.00 0.00 0.00 87 1017.6
20210926064459 57 33 5.0 6.0 0.00 0.00 0.00 87 1017.7
20210926063959 57 33 4.0 5.0 0.00 0.00 0.00 87 1017.6
20210926063500 57 33 4.0 5.0 0.00 0.00 0.00 87 1017.6
20210926062959 58 33 4.0 4.0 0.00 0.00 0.00 86 1017.5
20210926062459 58 33 2.0 4.0 0.00 0.00 0.00 86 1017.6
20210926061959 58 33 2.0 6.0 0.00 0.00 0.00 86 1017.5
20210926061458 58 33 2.0 6.0 0.00 0.00 0.00 86 1017.5
20210926060958 58 34 4.0 6.0 0.00 0.00 0.00 86 1017.5
20210926060458 58 33 3.0 5.0 0.00 0.00 0.00 87 1017.5
20210926055958 58 33 1.0 5.0 0.00 0.00 0.00 87 1017.5
20210926055457 58 33 2.0 5.0 0.00 0.00 0.00 87 1017.6
20210926054958 58 33 3.0 6.0 0.00 0.00 0.00 87 1017.5
20210926054458 58 33 2.0 6.0 0.00 0.00 0.00 87 1017.3
20210926053957 58 39 3.0 5.0 0.00 0.00 0.00 87 1017.3
20210926053459 58 39 2.0 9.0 0.00 0.00 0.00 86 1017.3
20210926052957 58 39 2.0 9.0 0.00 0.00 0.00 86 1017.4
20210926052457 58 40 6.0 6.0 0.00 0.00 0.00 86 1017.5
20210926051957 58 38 4.0 5.0 0.00 0.00 0.00 86 1017.4
20210926051457 58 38 1.0 6.0 0.00 0.00 0.00 85 1017.2
20210926050956 58 38 5.0 6.0 0.00 0.00 0.00 85 1017.2
20210926050457 58 23 4.0 6.0 0.00 0.00 0.00 85 1017.1
20210926045956 58 35 5.0 6.0 0.00 0.00 0.00 84 1017.0
20210926045456 58 36 4.0 5.0 0.00 0.00 0.00 84 1017.0
20210926044955 58 36 3.0 6.0 0.00 0.00 0.00 85 1017.0
20210926044455 58 36 2.0 6.0 0.00 0.00 0.00 85 1017.0
20210926043955 58 36 3.0 5.0 0.00 0.00 0.00 84 1017.0
20210926043456 58 36 2.0 5.0 0.00 0.00 0.00 84 1017.0
20210926042955 59 36 3.0 5.0 0.00 0.00 0.00 84 1017.1
20210926042455 59 36 1.0 8.0 0.00 0.00 0.00 84 1017.0
20210926041955 59 36 2.0 8.0 0.00 0.00 0.00 84 1017.0
20210926041455 59 34 8.0 8.0 0.00 0.00 0.00 84 1017.0
20210926040955 59 34 4.0 5.0 0.00 0.00 0.00 84 1016.9
20210926040456 59 34 1.0 4.0 0.00 0.00 0.00 84 1017.0
20210926035954 59 34 1.0 4.0 0.00 0.00 0.00 84 1016.6
20210926035454 60 34 3.0 7.0 0.00 0.00 0.00 83 1016.9
20210926034954 60 34 3.0 7.0 0.00 0.00 0.00 83 1016.7
20210926034454 60 32 0.0 0.0 0.00 0.00 0.00 83 1016.6
20210926033954 60 74 0.0 0.0 0.00 0.00 0.00 84 1016.7
20210926033454 61 74 0.0 0.0 0.00 0.00 0.00 83 1016.7
20210926032953 61 74 0.0 0.0 0.00 0.00 0.00 84 1016.6
20210926032453 61 87 0.0 0.0 0.00 0.00 0.00 84 1016.5
20210926031953 61 132 0.0 0.0 0.00 0.00 0.00 85 1016.6
20210926031453 61 149 0.0 0.0 0.00 0.00 0.00 86 1016.5
20210926030953 62 149 0.0 0.0 0.00 0.00 0.00 86 1016.7
20210926030453 62 149 0.0 0.0 0.00 0.00 0.00 86 1016.7
20210926025953 62 149 0.0 0.0 0.00 0.00 0.00 85 1015.6
20210926025452 62 149 0.0 0.0 0.00 0.00 0.00 84 1015.7
20210926024953 62 149 0.0 0.0 0.00 0.00 0.00 84 1015.5
20210926024452 63 149 0.0 0.0 0.00 0.00 0.00 83 1015.5
20210926023952 63 149 0.0 0.0 0.00 0.00 0.00 83 1015.4
20210926023452 63 149 0.0 0.0 0.00 0.00 0.00 83 1015.3
20210926022951 63 142 0.0 0.0 0.00 0.00 0.00 82 1015.2
20210926022452 64 142 0.0 0.0 0.00 0.00 0.00 82 1015.3
20210926021951 64 142 0.0 0.0 0.00 0.00 0.00 81 1015.2
20210926021451 64 142 0.0 4.0 0.00 0.00 0.00 80 1015.2
20210926020951 65 166 0.0 6.0 0.00 0.00 0.00 79 1015.2
20210926020451 65 178 1.0 6.0 0.00 0.00 0.00 78 1015.3
20210926015951 66 180 3.0 6.0 0.00 0.00 0.00 77 1014.8
20210926015451 66 171 2.0 6.0 0.00 0.00 0.00 76 1014.6
20210926014950 67 174 3.0 5.0 0.00 0.00 0.00 75 1014.8
20210926014450 67 242 1.0 4.0 0.00 0.00 0.00 74 1015.0
20210926013950 68 240 2.0 4.0 0.00 0.00 0.00 73 1014.9
20210926013450 68 248 0.0 7.0 0.00 0.00 0.00 72 1014.8
20210926012950 69 229 2.0 7.0 0.00 0.00 0.00 71 1015.2
20210926012451 69 205 2.0 5.0 0.00 0.00 0.00 70 1015.2
20210926011950 70 235 3.0 7.0 0.00 0.00 0.00 69 1015.2
20210926010934 70 288 4.0 8.0 0.00 0.00 0.00 68 1015.1
20210926010432 71 217 5.0 8.0 0.00 0.00 0.00 67 1015.4
20210926005932 71 250 2.0 8.0 0.00 0.00 0.00 67 1015.4
20210926005432 71 253 5.0 8.0 0.00 0.00 0.00 65 1015.4
20210926004932 72 224 2.0 8.0 0.00 0.00 0.00 65 1015.4
20210926004432 71 219 3.0 7.0 0.00 0.00 0.00 66 1015.4
20210926003933 71 190 5.0 6.0 0.00 0.00 0.00 67 1015.3
20210926003432 71 216 4.0 5.0 0.00 0.00 0.00 67 1015.2
20210926002931 71 228 2.0 7.0 0.00 0.00 0.00 67 1015.1
20210926002431 71 242 3.0 8.0 0.00 0.00 0.00 66 1015.2
20210926001932 72 295 5.0 10.0 0.00 0.00 0.00 65 1015.3
20210926001431 72 238 3.0 10.0 0.00 0.00 0.00 64 1015.4
20210926000931 73 254 2.0 8.0 0.00 0.00 0.00 63 1015.5
20210926000501 73 202 1.0 10.0 0.00 0.00 0.00 63 1015.5
20210925235931 73 259 4.0 10.0 0.00 0.00 0.00 63 1015.5
20210925235430 73 187 2.0 12.0 0.00 0.00 0.00 63 1015.6
20210925235001 74 202 10.0 12.0 0.00 0.00 0.00 61 1016.0
20210925234501 75 186 7.0 11.0 0.00 0.00 0.00 60 1015.9
20210925234001 75 211 4.0 11.0 0.00 0.00 0.00 60 1015.9
20210925233500 75 231 6.0 11.0 0.00 0.00 0.00 58 1015.9
20210925233001 76 207 8.0 12.0 0.00 0.00 0.00 57 1016.1
20210925232500 77 224 7.0 12.0 0.00 0.00 0.00 56 1016.0
20210925232000 78 287 8.0 13.0 0.00 0.00 0.00 55 1016.1
20210925231500 78 252 7.0 13.0 0.00 0.00 0.00 54 1016.1
20210925231000 79 265 2.0 13.0 0.00 0.00 0.00 53 1016.2
20210925230459 80 254 9.0 13.0 0.00 0.00 0.00 52 1016.3
20210925230000 79 196 3.0 10.0 0.00 0.00 0.00 53 1016.5
20210925225459 78 192 4.0 12.0 0.00 0.00 0.00 54 1016.3
20210925224959 78 220 2.0 12.0 0.00 0.00 0.00 55 1016.5
20210925224459 77 172 6.0 13.0 0.00 0.00 0.00 56 1016.5
20210925223959 77 262 6.0 16.0 0.00 0.00 0.00 55 1016.7
20210925223459 78 228 9.0 16.0 0.00 0.00 0.00 54 1016.7
20210925222959 79 217 12.0 15.0 0.00 0.00 0.00 54 1016.9
20210925222459 78 175 7.0 15.0 0.00 0.00 0.00 54 1016.7
20210925221958 79 207 10.0 15.0 0.00 0.00 0.00 53 1017.0
20210925221459 79 157 9.0 14.0 0.00 0.00 0.00 53 1017.0
20210925220958 78 207 6.0 15.0 0.00 0.00 0.00 54 1016.9
20210925220457 77 200 8.0 16.0 0.00 0.00 0.00 56 1017.0
20210925215958 76 211 11.0 16.0 0.00 0.00 0.00 58 1016.9
20210925215457 75 180 13.0 16.0 0.00 0.00 0.00 57 1016.4
20210925214957 76 191 6.0 16.0 0.00 0.00 0.00 57 1016.7
20210925214457 76 209 12.0 16.0 0.00 0.00 0.00 56 1016.7
20210925213957 76 165 5.0 13.0 0.00 0.00 0.00 54 1016.6
20210925213458 76 273 9.0 12.0 0.00 0.00 0.00 55 1016.8
20210925212957 76 219 8.0 14.0 0.00 0.00 0.00 54 1016.9
20210925212456 77 236 7.0 16.0 0.00 0.00 0.00 53 1017.1
20210925211956 78 277 7.0 16.0 0.00 0.00 0.00 51 1017.4
20210925211457 79 264 9.0 15.0 0.00 0.00 0.00 49 1017.5
20210925210956 80 272 9.0 16.0 0.00 0.00 0.00 49 1017.7
20210925210456 80 248 12.0 16.0 0.00 0.00 0.00 48 1017.8
20210925205957 80 233 6.0 15.0 0.00 0.00 0.00 48 1017.5
20210925205456 80 244 3.0 15.0 0.00 0.00 0.00 46 1017.6
20210925204956 81 290 9.0 14.0 0.00 0.00 0.00 46 1017.9
20210925204455 81 256 9.0 14.0 0.00 0.00 0.00 46 1017.9
20210925203955 81 275 7.0 13.0 0.00 0.00 0.00 46 1017.9
20210925203456 81 286 10.0 13.0 0.00 0.00 0.00 45 1017.9
20210925202955 81 256 8.0 13.0 0.00 0.00 0.00 45 1018.2
20210925202455 81 266 9.0 15.0 0.00 0.00 0.00 45 1018.2
20210925201954 81 250 7.0 15.0 0.00 0.00 0.00 45 1018.2
20210925201455 81 242 13.0 15.0 0.00 0.00 0.00 45 1018.3
20210925200955 80 252 11.0 14.0 0.00 0.00 0.00 45 1018.2
20210925200456 80 241 6.0 14.0 0.00 0.00 0.00 46 1018.2
20210925195954 79 224 7.0 12.0 0.00 0.00 0.00 47 1018.4
20210925195454 78 250 10.0 13.0 0.00 0.00 0.00 48 1018.4
20210925194954 78 225 5.0 13.0 0.00 0.00 0.00 48 1018.4
20210925194455 78 232 4.0 12.0 0.00 0.00 0.00 47 1018.4
20210925193953 79 240 2.0 13.0 0.00 0.00 0.00 45 1018.3
20210925193453 80 280 7.0 13.0 0.00 0.00 0.00 45 1018.7
20210925192953 80 271 7.0 11.0 0.00 0.00 0.00 45 1018.6
20210925192454 79 232 8.0 9.0 0.00 0.00 0.00 46 1018.5
20210925191953 79 233 6.0 11.0 0.00 0.00 0.00 46 1018.5
20210925190940 79 228 4.0 12.0 0.00 0.00 0.00 45 1018.5
20210925190441 79 260 7.0 12.0 0.00 0.00 0.00 44 1018.4
20210925185940 79 282 7.0 13.0 0.00 0.00 0.00 44 1018.9
20210925185440 79 217 4.0 13.0 0.00 0.00 0.00 44 1018.9
20210925184940 79 275 12.0 12.0 0.00 0.00 0.00 42 1018.9
20210925184439 80 232 6.0 11.0 0.00 0.00 0.00 41 1018.8
20210925183940 80 264 3.0 11.0 0.00 0.00 0.00 41 1018.9
20210925183439 79 178 3.0 9.0 0.00 0.00 0.00 41 1019.0
20210925182939 79 288 1.0 12.0 0.00 0.00 0.00 41 1019.0
20210925182439 79 269 6.0 12.0 0.00 0.00 0.00 41 1019.0
20210925181940 79 250 7.0 10.0 0.00 0.00 0.00 41 1019.1
20210925181439 79 286 3.0 12.0 0.00 0.00 0.00 41 1019.1
20210925180938 79 285 6.0 12.0 0.00 0.00 0.00 42 1019.1
20210925180438 78 201 5.0 10.0 0.00 0.00 0.00 43 1019.0
20210925175939 78 259 10.0 11.0 0.00 0.00 0.00 42 1018.9
20210925175439 78 288 1.0 13.0 0.00 0.00 0.00 44 1018.9
20210925174938 77 249 10.0 13.0 0.00 0.00 0.00 43 1018.9
20210925174438 78 259 8.0 10.0 0.00 0.00 0.00 42 1019.0
20210925173939 78 221 5.0 12.0 0.00 0.00 0.00 42 1019.0
20210925173437 78 240 5.0 12.0 0.00 0.00 0.00 42 1019.0
20210925172937 78 236 9.0 12.0 0.00 0.00 0.00 43 1019.0
20210925172437 77 220 8.0 11.0 0.00 0.00 0.00 43 1019.0
20210925171938 77 264 7.0 11.0 0.00 0.00 0.00 42 1019.1
20210925171437 77 236 5.0 13.0 0.00 0.00 0.00 43 1019.1
20210925170937 77 264 2.0 13.0 0.00 0.00 0.00 43 1019.0
20210925170437 77 198 5.0 11.0 0.00 0.00 0.00 44 1019.1
20210925165937 77 190 3.0 11.0 0.00 0.00 0.00 45 1019.0
20210925165436 77 180 3.0 11.0 0.00 0.00 0.00 46 1019.0
20210925164936 77 202 7.0 11.0 0.00 0.00 0.00 45 1019.0
20210925164436 77 202 2.0 10.0 0.00 0.00 0.00 44 1018.9
20210925163936 77 184 3.0 10.0 0.00 0.00 0.00 44 1018.8
20210925163436 76 157 2.0 9.0 0.00 0.00 0.00 45 1018.9
20210925162937 76 188 7.0 9.0 0.00 0.00 0.00 45 1018.8
20210925162436 76 188 5.0 10.0 0.00 0.00 0.00 46 1018.6
20210925161936 76 192 7.0 10.0 0.00 0.00 0.00 46 1018.7
20210925161435 75 265 2.0 9.0 0.00 0.00 0.00 46 1018.4
20210925160935 75 173 5.0 6.0 0.00 0.00 0.00 47 1018.4
20210925160435 74 248 4.0 5.0 0.00 0.00 0.00 47 1018.4
20210925155935 74 219 2.0 4.0 0.00 0.00 0.00 48 1018.6
20210925155435 73 201 2.0 4.0 0.00 0.00 0.00 50 1018.6
20210925154935 72 199 2.0 3.0 0.00 0.00 0.00 52 1018.4
20210925154434 70 102 0.0 3.0 0.00 0.00 0.00 54 1018.1
20210925153935 69 102 0.0 3.0 0.00 0.00 0.00 57 1018.2
20210925153434 68 50 2.0 3.0 0.00 0.00 0.00 60 1018.1
20210925152935 66 50 0.0 3.0 0.00 0.00 0.00 62 1017.7
20210925152434 66 50 1.0 3.0 0.00 0.00 0.00 64 1017.8
20210925151934 65 50 0.0 5.0 0.00 0.00 0.00 65 1017.8
20210925151433 65 50 2.0 5.0 0.00 0.00 0.00 65 1017.8
20210925150934 65 51 3.0 5.0 0.00 0.00 0.00 66 1017.8
20210925150433 64 39 3.0 4.0 0.00 0.00 0.00 67 1017.6
20210925145933 63 39 2.0 5.0 0.00 0.00 0.00 67 1017.1
20210925145433 62 40 3.0 6.0 0.00 0.00 0.00 69 1016.9
20210925144933 61 40 4.0 6.0 0.00 0.00 0.00 70 1016.9
20210925144433 61 60 3.0 5.0 0.00 0.00 0.00 70 1016.9
20210925143933 60 54 3.0 6.0 0.00 0.00 0.00 69 1016.7
20210925143432 60 41 3.0 6.0 0.00 0.00 0.00 69 1016.6
20210925142933 60 36 3.0 5.0 0.00 0.00 0.00 69 1016.6
20210925142432 60 36 3.0 5.0 0.00 0.00 0.00 69 1016.6
20210925141932 60 30 4.0 5.0 0.00 0.00 0.00 69 1016.6
20210925141431 59 32 2.0 7.0 0.00 0.00 0.00 69 1016.5
20210925140933 59 43 3.0 7.0 0.00 0.00 0.00 69 1016.4
20210925140432 59 35 5.0 6.0 0.00 0.00 0.00 68 1016.4
20210925135932 59 33 3.0 5.0 0.00 0.00 0.00 68 1016.6
20210925135431 60 22 2.0 6.0 0.00 0.00 0.00 68 1016.7
20210925134931 60 42 1.0 6.0 0.00 0.00 0.00 68 1016.6
20210925134431 60 46 5.0 6.0 0.00 0.00 0.00 69 1016.5
20210925133931 59 42 0.0 4.0 0.00 0.00 0.00 69 1016.5
20210925133430 59 40 3.0 4.0 0.00 0.00 0.00 69 1016.4
20210925132931 59 42 2.0 5.0 0.00 0.00 0.00 68 1016.3
20210925132430 59 59 3.0 5.0 0.00 0.00 0.00 68 1016.3
20210925131931 59 59 3.0 7.0 0.00 0.00 0.00 67 1016.2
20210925130942 59 46 5.0 7.0 0.00 0.00 0.00 65 1016.1
20210925130441 59 48 4.0 7.0 0.00 0.00 0.00 65 1016.1
20210925125942 60 61 5.0 6.0 0.00 0.00 0.00 63 1016.3
20210925125441 59 50 5.0 7.0 0.00 0.00 0.00 63 1016.4
20210925124941 59 51 4.0 9.0 0.00 0.00 0.00 63 1016.4
20210925124441 59 30 6.0 9.0 0.00 0.00 0.00 63 1016.4
20210925123940 59 41 4.0 7.0 0.00 0.00 0.00 62 1016.4
20210925123441 59 27 4.0 7.0 0.00 0.00 0.00 62 1016.3
20210925122940 60 39 3.0 7.0 0.00 0.00 0.00 61 1016.3
20210925122440 60 44 3.0 7.0 0.00 0.00 0.00 60 1016.3
20210925121940 60 11 7.0 7.0 0.00 0.00 0.00 61 1016.1
20210925121440 60 30 3.0 7.0 0.00 0.00 0.00 61 1016.0
20210925120940 60 34 5.0 6.0 0.00 0.00 0.00 60 1016.0
20210925120440 61 35 4.0 7.0 0.00 0.00 0.00 60 1016.4
20210925115939 61 30 3.0 9.0 0.00 0.00 0.00 59 1016.0
20210925115440 61 43 4.0 9.0 0.00 0.00 0.00 59 1016.0
20210925114939 62 40 9.0 9.0 0.00 0.00 0.00 58 1016.2
20210925114440 62 38 5.0 8.0 0.00 0.00 0.00 58 1016.2
20210925113939 62 30 4.0 6.0 0.00 0.00 0.00 58 1016.2
20210925113439 63 44 5.0 6.0 0.00 0.00 0.00 58 1016.2
20210925112939 63 33 4.0 6.0 0.00 0.00 0.00 58 1016.2
20210925112440 63 42 4.0 5.0 0.00 0.00 0.00 57 1016.2
20210925111938 63 42 3.0 5.0 0.00 0.00 0.00 57 1016.2
20210925111439 63 42 1.0 5.0 0.00 0.00 0.00 57 1016.3
20210925110939 63 44 4.0 6.0 0.00 0.00 0.00 57 1016.3
20210925110438 63 22 3.0 6.0 0.00 0.00 0.00 57 1016.2
20210925105938 63 42 2.0 5.0 0.00 0.00 0.00 56 1016.4
20210925105438 64 42 2.0 5.0 0.00 0.00 0.00 56 1016.5
20210925104937 64 42 3.0 5.0 0.00 0.00 0.00 56 1016.5
20210925104437 64 42 4.0 5.0 0.00 0.00 0.00 56 1016.5
20210925103937 64 42 3.0 5.0 0.00 0.00 0.00 56 1016.4
20210925103437 64 46 2.0 5.0 0.00 0.00 0.00 56 1016.5
20210925102937 64 46 0.0 5.0 0.00 0.00 0.00 56 1016.5
20210925102437 64 46 1.0 5.0 0.00 0.00 0.00 56 1016.4
20210925101937 64 41 3.0 4.0 0.00 0.00 0.00 55 1016.4
20210925101437 64 41 2.0 5.0 0.00 0.00 0.00 55 1016.5
20210925100937 64 41 4.0 5.0 0.00 0.00 0.00 55 1016.5
20210925100437 64 28 3.0 5.0 0.00 0.00 0.00 55 1016.5
20210925095936 64 37 3.0 5.0 0.00 0.00 0.00 55 1016.7
20210925095436 64 47 2.0 5.0 0.00 0.00 0.00 55 1016.7
20210925094936 64 47 3.0 5.0 0.00 0.00 0.00 55 1016.7
20210925094436 64 40 3.0 5.0 0.00 0.00 0.00 55 1016.7
20210925093936 64 40 4.0 5.0 0.00 0.00 0.00 55 1016.8
20210925093435 64 40 4.0 5.0 0.00 0.00 0.00 55 1016.8
20210925092936 64 40 4.0 5.0 0.00 0.00 0.00 55 1016.8
20210925092435 64 40 3.0 5.0 0.00 0.00 0.00 55 1016.8
20210925091935 64 40 3.0 5.0 0.00 0.00 0.00 55 1016.9
20210925091435 64 40 3.0 5.0 0.00 0.00 0.00 55 1016.9
20210925090935 64 40 2.0 4.0 0.00 0.00 0.00 55 1016.9
20210925090435 63 40 3.0 5.0 0.00 0.00 0.00 55 1016.8
20210925085934 63 40 4.0 5.0 0.00 0.00 0.00 55 1017.3
20210925085435 64 40 3.0 5.0 0.00 0.00 0.00 55 1017.3
20210925084934 64 40 3.0 4.0 0.00 0.00 0.00 54 1017.2
20210925084434 64 40 2.0 5.0 0.00 0.00 0.00 54 1017.2
20210925083935 64 40 3.0 5.0 0.00 0.00 0.00 54 1017.2
20210925083434 64 40 1.0 4.0 0.00 0.00 0.00 54 1017.2
20210925082933 64 40 4.0 4.0 0.00 0.00 0.00 54 1017.1
20210925082433 64 40 2.0 4.0 0.00 0.00 0.00 54 1017.2
20210925081933 64 40 3.0 4.0 0.00 0.00 0.00 53 1017.1
20210925081433 64 40 3.0 5.0 0.00 0.00 0.00 53 1017.1
20210925080934 64 40 4.0 5.0 0.00 0.00 0.00 53 1017.2
20210925080433 64 41 4.0 5.0 0.00 0.00 0.00 53 1017.1
20210925075933 65 25 3.0 4.0 0.00 0.00 0.00 52 1017.3
20210925075432 65 31 1.0 5.0 0.00 0.00 0.00 52 1017.3
20210925074933 65 31 3.0 6.0 0.00 0.00 0.00 52 1017.3
20210925074432 65 33 4.0 7.0 0.00 0.00 0.00 52 1017.4
20210925073932 65 44 5.0 7.0 0.00 0.00 0.00 51 1017.4
20210925073432 66 28 2.0 5.0 0.00 0.00 0.00 51 1017.7
20210925072932 66 36 4.0 5.0 0.00 0.00 0.00 50 1017.8
20210925072431 66 24 1.0 4.0 0.00 0.00 0.00 50 1017.8